Iron Mountain, MI

8:00 PM CDT on August 22, 2017 (GMT -0500)
Ford

Weather History for KIMT - March, 2014

Change the Weather History Date:

Wednesday, March 26, 2014

  Actual Average Record
Temperature  
Mean Temperature 14 °F -  
Max Temperature 30 °F 43 °F 73 °F (2007)
Min Temperature -2 °F 21 °F -5 °F (1940)
Degree Days  
Heating Degree Days 51    
Moisture  
Dew Point 4 °F    
Average Humidity 61    
Maximum Humidity 82    
Minimum Humidity 40    
Precipitation  
Precipitation 0.00 in - - ()
Sea Level Pressure  
Sea Level Pressure 30.12 in    
Wind  
Wind Speed 4 mph (South)    
Max Wind Speed 16 mph    
Max Gust Speed 21 mph    
Visibility 10 miles    
Events Snow    
Averages and records for this station are not official NWS values.
T = Trace of Precipitation, MM = Missing Value Source: NWS Daily Summary

Daily Weather History Graph

Daily Weather History Graph

Search for Another Location

Airport or City:

Trip Planner

Search our weather history database for the weather conditions in past years. The results will help you decide how hot, cold, wet, or windy it might be!

Date:

Astronomy

Mar. 26, 2014 Rise Set
Actual Time 6:43 AM CDT 7:12 PM CDT
Civil Twilight 6:14 AM CDT 7:42 PM CDT
Nautical Twilight 5:38 AM CDT 8:18 PM CDT
Astronomical Twilight 5:02 AM CDT 8:55 PM CDT
Moon 4:05 AM CDT (3/26) 2:39 PM CDT (3/26)
Length of Visible Light 13h 28m
Length of Day
12h 29m
Waning Crescent, 21% of the Moon is Illuminated
Mar 26
Waning Crescent
Mar 30
New
Apr 7
First Quarter
Apr 15
Full
Apr 22
Last Quarter

Hourly Weather History & Observations

Time (CDT) Temp. Windchill Dew Point Humidity Pressure Visibility Wind Dir Wind Speed Gust Speed Precip Events Conditions
12:54 AM 1.9 °F - -4.0 °F 76% 30.17 in 10.0 mi Calm Calm - N/A   Clear
1:54 AM -0.9 °F - -7.1 °F 75% 30.18 in 10.0 mi Calm Calm - N/A   Clear
2:54 AM -0.9 °F - -7.1 °F 75% 30.18 in 10.0 mi Calm Calm - N/A   Clear
3:54 AM -2.9 °F - -7.1 °F 82% 30.18 in 10.0 mi Calm Calm - N/A   Clear
4:54 AM 1.0 °F - -6.0 °F 72% 30.18 in 10.0 mi Calm Calm - N/A   Clear
5:54 AM -0.0 °F - -6.0 °F 76% 30.20 in 10.0 mi Calm Calm - N/A   Clear
6:54 AM -0.0 °F - -6.0 °F 76% 30.22 in 10.0 mi Calm Calm - N/A   Clear
7:54 AM 6.1 °F - -0.9 °F 73% 30.22 in 10.0 mi Calm Calm - N/A   Clear
8:54 AM 12.9 °F - 1.0 °F 59% 30.22 in 10.0 mi Calm Calm - N/A   Clear
9:54 AM 18.0 °F 11.1 °F 3.0 °F 52% 30.21 in 10.0 mi Variable 4.6 mph - N/A   Clear
10:54 AM 21.9 °F 11.7 °F 5.0 °F 48% 30.20 in 10.0 mi WSW 9.2 mph - 0.00 in   Clear
11:54 AM 24.1 °F 13.1 °F 6.1 °F 46% 30.18 in 10.0 mi South 11.5 mph - 0.00 in   Clear
12:54 PM 26.1 °F 17.6 °F 6.1 °F 43% 30.15 in 10.0 mi South 8.1 mph - 0.00 in   Clear
1:54 PM 28.0 °F 17.5 °F 7.0 °F 41% 30.13 in 10.0 mi South 12.7 mph 19.6 mph N/A   Partly Cloudy
2:54 PM 28.9 °F 20.4 °F 7.0 °F 40% 30.09 in 10.0 mi SSW 9.2 mph 20.7 mph N/A   Mostly Cloudy
3:54 PM 30.0 °F 18.7 °F 8.1 °F 40% 30.07 in 10.0 mi South 16.1 mph 19.6 mph N/A   Overcast
4:54 PM 28.0 °F 16.5 °F 9.0 °F 45% 30.05 in 10.0 mi SSE 15.0 mph - N/A   Overcast
5:54 PM 26.1 °F 16.2 °F 9.0 °F 49% 30.04 in 10.0 mi SSE 10.4 mph - N/A   Overcast
6:54 PM 25.0 °F 14.8 °F 12.0 °F 58% 30.02 in 10.0 mi SSE 10.4 mph 20.7 mph N/A   Overcast
7:54 PM 25.0 °F 13.6 °F 12.0 °F 58% 30.01 in 10.0 mi SSE 12.7 mph - N/A   Overcast
8:54 PM 25.0 °F 13.1 °F 12.9 °F 60% 30.00 in 10.0 mi SSE 13.8 mph - N/A   Overcast
9:54 PM 25.0 °F 15.5 °F 16.0 °F 69% 29.98 in 9.0 mi SSE 9.2 mph - 0.00 in Snow Light Snow
10:54 PM 25.0 °F 15.5 °F 16.0 °F 69% 29.96 in 9.0 mi SSE 9.2 mph - 0.00 in   Overcast
11:54 PM 25.0 °F 15.5 °F 18.0 °F 75% 29.94 in 9.0 mi SSE 9.2 mph - 0.00 in   Overcast